Location: Kergonan
(48.2337°N, 4.5518°W)
Time: 06:28:07
(UTC+00:00)

Meteor 1-24 Rocket - Pass Details

Date: 18 January 2020
Orbit: 791 x 926 km, 81.3° (Epoch: 24 February)

Event Time Altitude Azimuth Distance (km) Brightness Sun altitude
Exits shadow 05:20:17 53° 205° (SSW) 1,075 4.0 -26.5°
Drops below altitude 10° 05:24:49 10° 181° (S) 2,558 6.2 -25.7°
Sets 05:27:19 0° 179° (S) 3,511 7.0 -25.3°
